TimeEDT,TemperatureF,Dew PointF,Humidity,Sea Level PressureIn,VisibilityMPH,Wind Direction,Wind SpeedMPH,Gust SpeedMPH,PrecipitationIn,Events,Conditions,WindDirDegrees,DateUTC
12:15 AM,58.1,22.1,25,30.14,10.0,SE,4.6,-,N/A,,Clear,140,2013-05-07 04:15:00
12:35 AM,57.7,23.4,27,30.14,10.0,SE,3.5,-,N/A,,Clear,140,2013-05-07 04:35:00
12:55 AM,57.0,24.6,29,30.14,10.0,SSE,3.5,-,N/A,,Clear,150,2013-05-07 04:55:00
1:15 AM,56.3,25.2,30,30.14,10.0,SSE,3.5,-,N/A,,Clear,160,2013-05-07 05:15:00
1:35 AM,55.0,25.7,32,30.14,10.0,SSE,3.5,-,N/A,,Clear,150,2013-05-07 05:35:00
1:55 AM,55.6,27.3,34,30.14,10.0,SSE,4.6,-,N/A,,Clear,150,2013-05-07 05:55:00
2:15 AM,55.0,28.0,35,30.14,10.0,Calm,Calm,-,N/A,,Clear,0,2013-05-07 06:15:00
2:35 AM,54.3,30.0,39,30.14,10.0,SSE,4.6,-,N/A,,Clear,160,2013-05-07 06:35:00
2:55 AM,49.5,29.5,46,30.14,10.0,Calm,Calm,-,N/A,,Clear,0,2013-05-07 06:55:00
3:15 AM,49.5,29.8,47,30.14,10.0,Calm,Calm,-,N/A,,Clear,0,2013-05-07 07:15:00
3:35 AM,48.6,30.2,49,30.14,10.0,Calm,Calm,-,N/A,,Clear,0,2013-05-07 07:35:00
4:15 AM,47.7,30.2,51,30.14,10.0,Calm,Calm,-,N/A,,Clear,0,2013-05-07 08:15:00
4:35 AM,47.3,30.9,53,30.14,10.0,Calm,Calm,-,N/A,,Clear,0,2013-05-07 08:35:00
4:55 AM,43.9,31.1,61,30.14,10.0,Calm,Calm,-,N/A,,Clear,0,2013-05-07 08:55:00
5:15 AM,43.0,31.1,63,30.14,10.0,Calm,Calm,-,N/A,,Clear,0,2013-05-07 09:15:00
5:35 AM,43.7,31.5,62,30.14,10.0,Calm,Calm,-,N/A,,Clear,0,2013-05-07 09:35:00
5:55 AM,43.3,31.3,62,30.15,10.0,Calm,Calm,-,N/A,,Clear,0,2013-05-07 09:55:00
6:15 AM,43.3,32.0,64,30.15,10.0,Calm,Calm,-,N/A,,Clear,0,2013-05-07 10:15:00
6:35 AM,45.3,34.0,65,30.16,10.0,Calm,Calm,-,N/A,,Clear,0,2013-05-07 10:35:00
6:55 AM,46.6,34.3,62,30.16,10.0,Calm,Calm,-,N/A,,Clear,0,2013-05-07 10:55:00
7:15 AM,45.5,34.2,65,30.16,10.0,Calm,Calm,-,N/A,,Clear,0,2013-05-07 11:15:00
7:35 AM,50.2,36.0,58,30.16,10.0,Calm,Calm,-,N/A,,Clear,0,2013-05-07 11:35:00
7:55 AM,52.7,36.5,54,30.16,10.0,Calm,Calm,-,N/A,,Clear,0,2013-05-07 11:55:00
8:15 AM,54.7,36.5,50,30.17,10.0,Calm,Calm,-,N/A,,Clear,0,2013-05-07 12:15:00
8:35 AM,57.0,39.4,52,30.18,10.0,South,3.5,-,N/A,,Clear,190,2013-05-07 12:35:00
8:55 AM,57.7,40.1,52,30.18,10.0,South,4.6,-,N/A,,Clear,170,2013-05-07 12:55:00
9:15 AM,59.2,40.1,49,30.17,10.0,South,6.9,-,N/A,,Clear,170,2013-05-07 13:15:00
9:35 AM,60.6,40.3,47,30.18,10.0,South,4.6,-,N/A,,Clear,170,2013-05-07 13:35:00
9:55 AM,63.5,40.8,43,30.17,10.0,South,4.6,-,N/A,,Clear,170,2013-05-07 13:55:00
10:15 AM,64.9,39.2,39,30.16,10.0,South,3.5,-,N/A,,Clear,190,2013-05-07 14:15:00
10:35 AM,67.1,39.4,36,30.16,10.0,South,3.5,-,N/A,,Clear,170,2013-05-07 14:35:00
10:55 AM,69.3,35.8,29,30.16,10.0,South,3.5,-,N/A,,Clear,190,2013-05-07 14:55:00
11:15 AM,70.9,34.3,26,30.15,10.0,East,4.6,-,N/A,,Clear,100,2013-05-07 15:15:00
11:35 AM,72.5,37.2,28,30.15,10.0,SSE,3.5,-,N/A,,Clear,150,2013-05-07 15:35:00
11:55 AM,73.8,34.7,24,30.14,10.0,SE,3.5,-,N/A,,Clear,140,2013-05-07 15:55:00
12:15 PM,74.7,31.8,21,30.13,10.0,East,3.5,-,N/A,,Clear,80,2013-05-07 16:15:00
12:35 PM,75.7,32.9,21,30.13,10.0,SSW,6.9,-,N/A,,Clear,200,2013-05-07 16:35:00
12:55 PM,77.4,31.3,19,30.12,10.0,Calm,Calm,-,N/A,,Clear,0,2013-05-07 16:55:00
1:15 PM,77.2,30.2,18,30.12,10.0,East,4.6,-,N/A,,Clear,100,2013-05-07 17:15:00
1:55 PM,78.4,28.6,16,30.11,10.0,SSW,3.5,-,N/A,,Clear,210,2013-05-07 17:55:00
2:15 PM,78.4,27.1,15,30.10,10.0,North,3.5,-,N/A,,Clear,10,2013-05-07 18:15:00
2:35 PM,78.8,24.4,13,30.09,10.0,East,3.5,-,N/A,,Clear,100,2013-05-07 18:35:00
2:55 PM,79.5,23.9,13,30.09,10.0,East,6.9,-,N/A,,Clear,100,2013-05-07 18:55:00
3:15 PM,79.9,25.3,13,30.08,10.0,South,4.6,-,N/A,,Clear,170,2013-05-07 19:15:00
3:35 PM,80.4,23.2,12,30.08,10.0,Calm,Calm,-,N/A,,Clear,0,2013-05-07 19:35:00
3:55 PM,80.8,19.9,10,30.07,10.0,WSW,9.2,-,N/A,,Clear,240,2013-05-07 19:55:00
4:15 PM,80.4,17.8,10,30.07,10.0,South,5.8,-,N/A,,Clear,180,2013-05-07 20:15:00
4:35 PM,80.8,16.3,9,30.06,10.0,South,4.6,-,N/A,,Clear,180,2013-05-07 20:35:00
4:55 PM,80.8,17.2,9,30.06,10.0,SSW,9.2,-,N/A,,Clear,210,2013-05-07 20:55:00
5:15 PM,80.8,16.9,9,30.06,10.0,SW,5.8,-,N/A,,Clear,220,2013-05-07 21:15:00
5:35 PM,80.8,17.6,9,30.06,10.0,SW,3.5,-,N/A,,Clear,220,2013-05-07 21:35:00
5:55 PM,79.3,18.7,10,30.06,10.0,SSW,3.5,-,N/A,,Clear,200,2013-05-07 21:55:00
6:15 PM,79.2,14.0,9,30.06,10.0,SW,5.8,-,N/A,,Clear,220,2013-05-07 22:15:00
6:35 PM,78.4,17.2,10,30.06,10.0,SW,5.8,-,N/A,,Clear,220,2013-05-07 22:35:00
6:55 PM,77.4,25.2,15,30.07,10.0,Calm,Calm,-,N/A,,Clear,0,2013-05-07 22:55:00
7:15 PM,77.4,23.7,14,30.08,10.0,Calm,Calm,-,N/A,,Clear,0,2013-05-07 23:15:00
7:35 PM,76.6,25.7,15,30.08,10.0,Calm,Calm,-,N/A,,Clear,0,2013-05-07 23:35:00
7:55 PM,75.0,26.4,17,30.08,10.0,Calm,Calm,-,N/A,,Clear,0,2013-05-07 23:55:00
8:15 PM,72.1,27.9,19,30.10,10.0,Calm,Calm,-,N/A,,Clear,0,2013-05-08 00:15:00
8:35 PM,72.0,25.0,17,30.10,10.0,NNE,4.6,-,N/A,,Clear,30,2013-05-08 00:35:00
8:55 PM,68.0,29.1,23,30.11,10.0,NNE,4.6,-,N/A,,Clear,30,2013-05-08 00:55:00
9:15 PM,68.4,29.7,24,30.12,10.0,Calm,Calm,-,N/A,,Clear,0,2013-05-08 01:15:00
9:35 PM,66.2,30.2,26,30.13,10.0,SSE,5.8,-,N/A,,Clear,150,2013-05-08 01:35:00
9:55 PM,60.4,35.1,39,30.13,10.0,SSW,3.5,-,N/A,,Clear,210,2013-05-08 01:55:00
10:15 PM,68.4,29.5,23,30.14,10.0,SSW,3.5,-,N/A,,Clear,200,2013-05-08 02:15:00
10:35 PM,66.7,30.0,25,30.14,10.0,SSW,3.5,-,N/A,,Clear,200,2013-05-08 02:35:00
10:55 PM,64.9,30.2,27,30.14,10.0,SSE,4.6,-,N/A,,Clear,150,2013-05-08 02:55:00
11:15 PM,66.2,29.8,26,30.15,10.0,South,4.6,-,N/A,,Clear,180,2013-05-08 03:15:00
11:35 PM,59.7,34.5,39,30.15,10.0,SSE,3.5,-,N/A,,Clear,150,2013-05-08 03:35:00
11:55 PM,57.0,35.4,44,30.15,10.0,Calm,Calm,-,N/A,,Clear,0,2013-05-08 03:55:00